CW4114 Weather Reports


Display with metric or nautical units.
time (UTC)temp
F
wind
direction
speed
MPH
gust
MPH
rain 1hr
in
rain 24hr
in
rain mn
in
humidity
%
barometer
mb
20191207162528 30 360 2.0 7.0 0.00 0.00 0.00 76 1026.9
20191207162040 30 360 2.0 7.0 0.00 0.00 0.00 76 1027.0
20191207161543 30 360 2.0 8.0 0.00 0.00 0.00 77 1026.8
20191207161036 30 218 2.0 8.0 0.00 0.00 0.00 77 1026.8
20191207160524 29 282 3.0 8.0 0.00 0.00 0.00 79 1026.8
20191207160051 28 199 2.0 7.0 0.00 0.00 0.00 79 1026.7
20191207155527 28 197 1.0 4.0 0.00 0.01 0.00 79 1027.0
20191207155035 28 184 1.0 4.0 0.00 0.01 0.00 80 1026.9
20191207154617 27 219 2.0 4.0 0.00 0.01 0.00 81 1027.1
20191207154036 27 217 2.0 4.0 0.00 0.01 0.00 81 1027.1
20191207153529 27 176 1.0 3.0 0.00 0.01 0.00 81 1027.2
20191207153102 26 176 0.0 2.0 0.00 0.01 0.00 82 1027.2
20191207152528 25 0 1.0 2.0 0.00 0.01 0.00 83 1027.3
20191207152026 25 176 0.0 2.0 0.00 0.01 0.00 82 1027.3
20191207151557 24 176 0.0 3.0 0.00 0.01 0.00 83 1027.4
20191207151035 23 0 1.0 3.0 0.00 0.01 0.00 83 1027.3
20191207150524 23 0 0.0 2.0 0.00 0.01 0.00 83 1027.2
20191207150122 23 176 1.0 3.0 0.00 0.01 0.00 83 1027.2
20191207145528 22 0 0.0 3.0 0.00 0.02 0.00 83 1027.2
20191207145030 22 190 1.0 3.0 0.00 0.02 0.00 83 1027.2
20191207144552 22 198 1.0 3.0 0.00 0.02 0.00 84 1027.1
20191207144028 22 0 0.0 3.0 0.00 0.02 0.00 84 1027.2
20191207143535 22 0 1.0 3.0 0.00 0.02 0.00 85 1027.1
20191207143056 21 0 0.0 2.0 0.00 0.02 0.00 85 1027.2
20191207142528 21 360 0.0 2.0 0.00 0.02 0.00 85 1027.3
20191207142028 21 360 1.0 2.0 0.00 0.02 0.00 86 1027.2
20191207141551 20 200 0.0 2.0 0.00 0.02 0.00 86 1027.0
20191207141030 20 0 1.0 2.0 0.00 0.02 0.00 86 1027.0
20191207140528 20 0 0.0 2.0 0.00 0.02 0.00 85 1027.2
20191207140103 19 0 0.0 2.0 0.00 0.02 0.00 85 1027.2
20191207135525 19 0 0.0 2.0 0.00 0.02 0.00 86 1027.1
20191207135043 19 0 0.0 3.0 0.00 0.02 0.00 86 1027.1
20191207134613 19 0 1.0 3.0 0.00 0.02 0.00 86 1027.0
20191207134027 19 200 1.0 3.0 0.00 0.02 0.00 86 1027.0
20191207133526 19 0 0.0 2.0 0.00 0.02 0.00 86 1026.9
20191207133139 19 0 0.0 0.0 0.00 0.02 0.00 86 1026.9
20191207132533 19 0 0.0 1.0 0.00 0.02 0.00 85 1026.9
20191207132025 19 0 0.0 1.0 0.00 0.02 0.00 85 1026.8
20191207131540 19 0 0.0 2.0 0.00 0.02 0.00 85 1026.8
20191207131040 19 0 0.0 2.0 0.00 0.02 0.00 84 1026.9
20191207130527 19 0 0.0 2.0 0.00 0.02 0.00 84 1026.8
20191207130135 19 0 0.0 2.0 0.00 0.02 0.00 84 1026.7
20191207125534 20 200 0.0 1.0 0.00 0.02 0.00 83 1026.7
20191207125027 20 0 0.0 2.0 0.00 0.02 0.00 83 1026.6
20191207124546 20 0 0.0 2.0 0.00 0.02 0.00 83 1026.6
20191207124024 20 200 0.0 2.0 0.00 0.02 0.00 83 1026.8
20191207123533 20 0 0.0 3.0 0.00 0.02 0.00 83 1026.6
20191207123030 20 200 0.0 3.0 0.00 0.02 0.00 83 1026.7
20191207122527 21 0 0.0 3.0 0.00 0.02 0.00 83 1026.7
20191207122032 21 198 1.0 3.0 0.00 0.02 0.00 83 1026.7
20191207121531 21 198 0.0 3.0 0.00 0.02 0.00 83 1026.7
20191207121024 21 0 0.0 3.0 0.00 0.02 0.00 83 1026.6
20191207120534 21 0 1.0 3.0 0.00 0.02 0.00 83 1026.6
20191207120127 21 236 0.0 3.0 0.00 0.02 0.00 83 1026.8
20191207115527 21 0 0.0 3.0 0.00 0.02 0.00 83 1026.7
20191207115032 21 0 0.0 2.0 0.00 0.02 0.00 83 1026.8
20191207114612 21 0 0.0 2.0 0.00 0.02 0.00 83 1026.7
20191207114034 21 0 0.0 2.0 0.00 0.02 0.00 82 1026.7
20191207113528 21 0 0.0 2.0 0.00 0.02 0.00 82 1026.7
20191207113114 21 0 0.0 1.0 0.00 0.02 0.00 82 1026.7
20191207112538 21 238 0.0 2.0 0.00 0.02 0.00 82 1026.6
20191207112026 21 0 0.0 2.0 0.00 0.02 0.00 82 1026.6
20191207111551 22 0 0.0 2.0 0.00 0.02 0.00 82 1026.8
20191207111025 22 237 0.0 2.0 0.00 0.02 0.00 82 1026.7
20191207110526 22 0 0.0 1.0 0.00 0.02 0.00 82 1026.7
20191207110047 22 237 0.0 1.0 0.00 0.02 0.00 82 1026.7
20191207105526 22 0 0.0 1.0 0.00 0.02 0.00 82 1026.7
20191207105030 22 0 0.0 2.0 0.00 0.02 0.00 82 1026.7
20191207104557 22 0 0.0 2.0 0.00 0.02 0.00 81 1026.7
20191207104042 22 0 0.0 3.0 0.00 0.02 0.00 81 1026.7
20191207103531 22 0 0.0 3.0 0.00 0.02 0.00 81 1026.7
20191207103050 22 0 0.0 2.0 0.00 0.02 0.00 81 1026.8
20191207102526 22 0 0.0 3.0 0.00 0.02 0.00 81 1026.8
20191207102026 22 0 0.0 3.0 0.00 0.02 0.00 81 1026.8
20191207101614 22 0 0.0 3.0 0.00 0.02 0.00 81 1026.7
20191207101027 22 0 0.0 3.0 0.00 0.02 0.00 81 1026.7
20191207100526 22 250 0.0 3.0 0.00 0.02 0.00 81 1026.7
20191207100046 22 0 0.0 2.0 0.00 0.02 0.00 81 1026.8
20191207095525 22 0 0.0 2.0 0.00 0.02 0.00 81 1026.8
20191207095032 22 0 0.0 2.0 0.00 0.02 0.00 81 1026.8
20191207094607 22 296 0.0 2.0 0.00 0.02 0.00 81 1026.9
20191207094024 22 0 0.0 2.0 0.00 0.02 0.00 81 1026.9
20191207093536 22 300 0.0 2.0 0.00 0.02 0.00 80 1026.8
20191207093100 22 300 0.0 2.0 0.00 0.02 0.00 80 1026.9
20191207092538 22 301 0.0 1.0 0.00 0.02 0.00 79 1026.9
20191207092025 22 0 0.0 0.0 0.00 0.02 0.00 79 1026.9
20191207091540 23 0 0.0 0.0 0.00 0.02 0.00 78 1026.9
20191207091034 23 0 0.0 1.0 0.00 0.02 0.00 78 1026.8
20191207090526 23 0 0.0 2.0 0.00 0.02 0.00 78 1026.8
20191207090039 23 301 0.0 3.0 0.00 0.02 0.00 77 1026.8
20191207085528 23 0 0.0 3.0 0.00 0.05 0.00 77 1026.9
20191207085032 23 300 1.0 4.0 0.00 0.05 0.00 77 1027.0
20191207084546 23 0 1.0 4.0 0.00 0.05 0.00 78 1026.9
20191207084041 23 231 0.0 4.0 0.00 0.05 0.00 78 1027.0
20191207083529 24 0 1.0 4.0 0.00 0.05 0.00 78 1027.1
20191207083054 24 224 0.0 3.0 0.00 0.05 0.00 78 1027.2
20191207082528 24 0 1.0 4.0 0.00 0.05 0.00 78 1027.2
20191207082028 23 326 1.0 4.0 0.00 0.05 0.00 78 1027.2
20191207081550 23 0 1.0 3.0 0.00 0.05 0.00 78 1027.1
20191207081028 23 0 1.0 3.0 0.00 0.05 0.00 78 1027.2
20191207080536 23 0 1.0 3.0 0.00 0.05 0.00 78 1027.2
20191207080112 23 0 0.0 4.0 0.00 0.05 0.00 78 1027.2
20191207075529 23 0 1.0 4.0 0.00 0.08 0.00 78 1027.3
20191207075026 23 236 1.0 5.0 0.00 0.08 0.00 77 1027.2
20191207074543 23 320 1.0 6.0 0.00 0.08 0.00 77 1027.1
20191207074026 23 230 2.0 6.0 0.00 0.08 0.00 77 1027.1
20191207073529 23 0 1.0 6.0 0.00 0.08 0.00 77 1026.7
20191207073104 23 243 1.0 5.0 0.00 0.08 0.00 77 1026.8
20191207072532 23 237 1.0 5.0 0.00 0.08 0.00 77 1026.7
20191207072032 23 224 1.0 5.0 0.00 0.08 0.00 77 1026.7
20191207071617 23 221 2.0 5.0 0.00 0.08 0.00 77 1026.7
20191207071035 23 213 1.0 5.0 0.00 0.08 0.00 77 1026.7
20191207070528 23 253 2.0 4.0 0.00 0.08 0.00 78 1026.7
20191207070128 23 228 0.0 6.0 0.00 0.08 0.00 78 1026.7
20191207065542 23 227 2.0 6.0 0.00 0.10 0.00 78 1026.7
20191207065027 23 221 1.0 4.0 0.00 0.10 0.00 78 1026.6
20191207064601 23 0 0.0 4.0 0.00 0.10 0.00 77 1026.6
20191207064033 23 216 1.0 6.0 0.00 0.10 0.00 77 1026.7
20191207063531 23 221 1.0 6.0 0.00 0.10 0.00 77 1026.6
20191207063045 23 221 1.0 4.0 0.00 0.10 0.00 77 1026.6
20191207062529 23 0 0.0 4.0 0.00 0.10 0.00 77 1026.5
20191207062029 23 210 1.0 4.0 0.00 0.10 0.00 77 1026.6
20191207061613 23 213 1.0 4.0 0.00 0.10 0.00 77 1026.5
20191207061032 23 215 1.0 5.0 0.00 0.10 0.00 77 1026.5
20191207060534 23 218 2.0 5.0 0.00 0.10 0.00 77 1026.5
20191207060115 23 226 1.0 5.0 0.00 0.10 0.00 76 1026.4
20191207055528 23 234 1.0 5.0 0.00 0.11 0.00 77 1026.3
20191207055028 23 201 1.0 4.0 0.00 0.11 0.00 76 1026.3
20191207054603 23 219 1.0 4.0 0.00 0.11 0.00 76 1026.3
20191207054031 23 217 1.0 4.0 0.00 0.11 0.00 76 1026.2
20191207053529 23 227 1.0 8.0 0.00 0.11 0.00 76 1026.2
20191207053057 23 228 1.0 8.0 0.00 0.11 0.00 76 1026.3
20191207052529 23 226 1.0 7.0 0.00 0.11 0.00 76 1026.2
20191207052043 23 241 3.0 7.0 0.00 0.11 0.00 76 1026.2
20191207051557 23 213 1.0 6.0 0.00 0.11 0.00 76 1026.2
20191207051026 23 250 1.0 6.0 0.00 0.11 0.00 76 1026.3
20191207050526 23 306 2.0 5.0 0.00 0.11 0.00 76 1026.3
20191207050045 23 212 1.0 6.0 0.00 0.11 0.00 76 1026.3
20191207045529 23 0 2.0 6.0 0.00 0.13 0.11 76 1026.4
20191207045028 23 251 1.0 4.0 0.00 0.13 0.11 76 1026.4
20191207044554 23 271 1.0 4.0 0.00 0.13 0.11 76 1026.3
20191207044028 23 230 1.0 5.0 0.00 0.13 0.11 76 1026.2
20191207043533 23 219 1.0 5.0 0.00 0.13 0.11 76 1026.3
20191207043105 23 210 1.0 5.0 0.00 0.13 0.11 76 1026.3
20191207042540 23 250 2.0 6.0 0.00 0.13 0.11 75 1026.2
20191207042027 23 326 2.0 6.0 0.00 0.13 0.11 75 1026.1
20191207041645 23 221 2.0 5.0 0.00 0.13 0.11 75 1026.0
20191207041043 23 307 2.0 5.0 0.00 0.13 0.11 75 1026.1
20191207040534 23 310 2.0 5.0 0.00 0.13 0.11 75 1026.2
20191207040049 23 323 2.0 6.0 0.00 0.13 0.11 75 1026.1
20191207035528 23 214 2.0 6.0 0.00 0.13 0.11 75 1026.1
20191207035100 23 323 1.0 7.0 0.00 0.13 0.11 75 1026.0
20191207034655 23 316 1.0 7.0 0.00 0.13 0.11 75 1026.1
20191207034032 23 266 1.0 4.0 0.00 0.13 0.11 75 1026.0
20191207033534 23 204 1.0 8.0 0.00 0.13 0.11 75 1026.0
20191207033107 23 178 2.0 8.0 0.00 0.13 0.11 75 1026.0
20191207032531 23 293 1.0 8.0 0.00 0.13 0.11 75 1026.0
20191207032043 23 218 2.0 8.0 0.00 0.13 0.11 75 1025.9
20191207031612 23 205 2.0 5.0 0.00 0.13 0.11 75 1025.8
20191207031027 23 216 1.0 7.0 0.00 0.13 0.11 75 1025.8
20191207030531 23 210 2.0 9.0 0.00 0.13 0.11 75 1025.9
20191207030124 23 222 2.0 9.0 0.00 0.13 0.11 75 1025.7
20191207025526 23 257 1.0 5.0 0.00 0.13 0.11 75 1025.7
20191207025033 23 224 1.0 5.0 0.00 0.13 0.11 75 1025.6
20191207024610 23 226 1.0 5.0 0.00 0.13 0.11 75 1025.6
20191207024028 23 318 1.0 6.0 0.00 0.13 0.11 75 1025.7
20191207023529 23 227 1.0 6.0 0.00 0.13 0.11 75 1025.6
20191207023059 23 259 2.0 7.0 0.00 0.13 0.11 75 1025.5
20191207022526 23 233 2.0 7.0 0.00 0.13 0.11 75 1025.4
20191207022026 23 360 1.0 6.0 0.00 0.13 0.11 75 1025.5
20191207021617 23 218 1.0 6.0 0.00 0.13 0.11 75 1025.4
20191207021028 23 309 1.0 7.0 0.00 0.13 0.11 75 1025.3
20191207020529 23 229 2.0 7.0 0.00 0.13 0.11 74 1025.3
20191207020048 23 228 2.0 7.0 0.00 0.13 0.11 74 1025.3
20191207015528 23 212 2.0 6.0 0.00 0.13 0.11 74 1025.4
20191207015030 23 316 1.0 5.0 0.00 0.13 0.11 74 1025.2
20191207014537 23 220 2.0 5.0 0.00 0.13 0.11 74 1025.2
20191207014028 23 226 1.0 5.0 0.00 0.13 0.11 74 1025.1
20191207013528 23 216 1.0 5.0 0.00 0.13 0.11 74 1025.1
20191207013052 23 224 2.0 7.0 0.00 0.13 0.11 74 1025.0
20191207012533 23 221 2.0 7.0 0.00 0.13 0.11 74 1025.0
20191207012034 23 236 1.0 6.0 0.00 0.13 0.11 74 1024.9
20191207011616 23 212 2.0 6.0 0.00 0.13 0.11 74 1025.1
20191207011028 23 250 1.0 6.0 0.00 0.13 0.11 74 1025.1
20191207010530 23 231 2.0 6.0 0.00 0.13 0.11 74 1025.1
20191207010056 23 207 2.0 6.0 0.00 0.13 0.11 74 1025.0
20191207005539 23 225 1.0 10.0 0.00 0.13 0.11 74 1025.1
20191207005028 23 230 2.0 10.0 0.00 0.13 0.11 74 1025.1
20191207004614 23 245 2.0 6.0 0.00 0.13 0.11 74 1025.0
20191207004045 23 273 2.0 6.0 0.00 0.13 0.11 74 1025.0
20191207003542 23 314 3.0 6.0 0.00 0.13 0.11 74 1025.0
20191207003030 23 305 2.0 8.0 0.00 0.13 0.11 73 1024.9
20191207002525 23 323 2.0 8.0 0.00 0.13 0.11 73 1025.0
20191207002026 23 311 2.0 7.0 0.00 0.13 0.11 73 1024.7
20191207001628 23 239 2.0 6.0 0.00 0.13 0.11 74 1024.8
20191207001027 23 224 1.0 5.0 0.00 0.13 0.11 74 1024.8
20191207000528 23 250 1.0 7.0 0.00 0.13 0.11 74 1024.7
20191207000046 23 215 1.0 7.0 0.00 0.13 0.11 74 1024.8
20191206235529 23 292 2.0 9.0 0.00 0.13 0.11 74 1024.5
20191206235032 23 254 2.0 9.0 0.00 0.13 0.11 73 1024.5
20191206234620 23 327 3.0 8.0 0.00 0.13 0.11 73 1024.5
20191206234025 24 224 1.0 8.0 0.00 0.13 0.11 73 1024.4
20191206233525 24 360 2.0 7.0 0.00 0.13 0.11 73 1024.4
20191206233056 24 208 3.0 7.0 0.00 0.13 0.11 73 1024.4
20191206232540 24 360 2.0 9.0 0.00 0.13 0.11 74 1024.4
20191206232027 24 196 2.0 9.0 0.00 0.13 0.11 74 1024.2
20191206231605 24 305 2.0 9.0 0.00 0.13 0.11 73 1024.3
20191206231028 24 286 2.0 9.0 0.00 0.13 0.11 73 1024.2
20191206230529 24 360 2.0 7.0 0.00 0.13 0.11 73 1024.2
20191206230115 24 360 2.0 5.0 0.00 0.13 0.11 73 1024.2
20191206225526 24 229 2.0 8.0 0.00 0.13 0.11 73 1024.0
20191206225034 24 315 2.0 8.0 0.00 0.13 0.11 74 1024.0
20191206224541 24 226 2.0 7.0 0.00 0.13 0.11 74 1023.9
20191206224028 24 360 2.0 7.0 0.00 0.13 0.11 75 1023.8
20191206223536 25 233 1.0 5.0 0.00 0.13 0.11 75 1023.8
20191206223055 25 360 1.0 5.0 0.00 0.13 0.11 75 1023.7
20191206222526 25 360 2.0 5.0 0.00 0.13 0.11 76 1023.6
20191206222035 25 360 1.0 5.0 0.00 0.13 0.11 76 1023.6
20191206221601 25 360 1.0 5.0 0.00 0.13 0.11 76 1023.5
20191206221032 26 305 1.0 7.0 0.00 0.13 0.11 76 1023.4
20191206220539 26 360 2.0 7.0 0.00 0.13 0.11 76 1023.4
20191206220054 26 360 3.0 9.0 0.00 0.13 0.11 76 1023.5
20191206215525 26 232 4.0 10.0 0.00 0.13 0.11 77 1023.3
20191206215032 26 317 4.0 10.0 0.00 0.13 0.11 78 1023.1
20191206214601 26 265 1.0 8.0 0.00 0.13 0.11 77 1022.9
20191206214026 26 333 3.0 8.0 0.00 0.13 0.11 77 1022.7
20191206213528 27 308 3.0 8.0 0.00 0.13 0.11 77 1022.5
20191206213048 27 286 3.0 10.0 0.00 0.13 0.11 78 1022.6
20191206212528 27 324 4.0 10.0 0.00 0.13 0.11 78 1022.4
20191206212029 27 201 3.0 11.0 0.00 0.13 0.11 78 1022.4
20191206211628 27 311 4.0 11.0 0.00 0.13 0.11 78 1022.2
20191206211028 27 297 4.0 10.0 0.00 0.13 0.11 78 1022.2
20191206210528 27 311 4.0 11.0 0.00 0.13 0.11 78 1022.1
20191206210037 27 23 5.0 12.0 0.00 0.13 0.11 77 1022.0
20191206205527 28 336 5.0 12.0 0.00 0.13 0.11 76 1022.1
20191206205025 28 314 2.0 8.0 0.00 0.13 0.11 77 1021.8
20191206204539 28 244 3.0 9.0 0.00 0.13 0.11 76 1021.6
20191206204025 28 236 3.0 9.0 0.00 0.13 0.11 78 1021.6
20191206203527 28 222 3.0 8.0 0.00 0.13 0.11 79 1021.6
20191206203059 27 324 3.0 11.0 0.00 0.13 0.11 81 1021.5
20191206202533 28 267 2.0 14.0 0.00 0.13 0.11 81 1021.4
20191206202031 28 224 4.0 14.0 0.00 0.13 0.11 79 1021.3
20191206201612 28 214 3.0 11.0 0.00 0.13 0.11 78 1021.2
20191206201028 28 207 3.0 10.0 0.00 0.13 0.11 79 1021.1
20191206200528 28 1 4.0 15.0 0.00 0.13 0.11 80 1021.2
20191206200116 27 236 6.0 15.0 0.00 0.13 0.11 82 1021.1
20191206195528 27 324 4.0 12.0 0.00 0.13 0.11 84 1021.2
20191206195033 27 218 4.0 9.0 0.00 0.13 0.11 84 1021.0
20191206194547 27 330 3.0 10.0 0.00 0.13 0.11 83 1020.9
20191206194032 28 288 4.0 10.0 0.00 0.13 0.11 80 1021.0
20191206193548 29 328 3.0 8.0 0.00 0.13 0.11 76 1020.8
20191206193124 29 219 3.0 8.0 0.00 0.13 0.11 74 1020.6
20191206192547 29 335 3.0 8.0 0.00 0.13 0.11 73 1020.5
20191206192027 29 337 3.0 8.0 0.00 0.13 0.11 74 1020.5
20191206191547 29 303 3.0 8.0 0.00 0.13 0.11 72 1020.3
20191206191034 29 203 3.0 6.0 0.00 0.13 0.11 71 1020.3
20191206190534 29 330 2.0 7.0 0.00 0.13 0.11 71 1020.2
20191206190109 29 223 2.0 9.0 0.00 0.13 0.11 70 1020.1
20191206185527 29 344 2.0 10.0 0.00 0.13 0.11 71 1020.1
20191206185027 29 326 3.0 10.0 0.00 0.13 0.11 71 1020.2
20191206184615 29 187 3.0 7.0 0.00 0.13 0.11 72 1020.2
20191206184031 29 321 2.0 9.0 0.00 0.13 0.11 73 1020.0
20191206183533 29 357 4.0 10.0 0.00 0.13 0.11 73 1020.0
20191206183124 29 342 3.0 10.0 0.00 0.13 0.11 73 1020.0
20191206182531 29 315 3.0 10.0 0.00 0.13 0.11 73 1020.0
20191206182026 29 197 4.0 11.0 0.00 0.13 0.11 73 1019.9
20191206181617 29 326 4.0 11.0 0.00 0.13 0.11 73 1019.8
20191206181027 29 315 4.0 10.0 0.00 0.13 0.11 72 1019.7
20191206180534 29 318 4.0 13.0 0.00 0.13 0.11 71 1019.8
20191206180055 29 321 4.0 13.0 0.00 0.13 0.11 72 1019.8
20191206175527 29 317 3.0 9.0 0.00 0.13 0.11 73 1019.7
20191206175027 29 343 3.0 13.0 0.00 0.13 0.11 74 1019.6
20191206174539 29 334 2.0 13.0 0.00 0.13 0.11 76 1019.7
20191206174034 29 326 4.0 9.0 0.00 0.13 0.11 77 1019.7
20191206173526 29 321 3.0 12.0 0.00 0.13 0.11 76 1019.6
20191206173131 29 342 6.0 12.0 0.00 0.13 0.11 76 1019.6
20191206172527 29 318 4.0 10.0 0.00 0.13 0.11 75 1019.5
20191206172027 29 337 4.0 10.0 0.00 0.13 0.11 77 1019.7
20191206171637 29 322 5.0 10.0 0.00 0.13 0.11 78 1019.6
20191206171028 28 322 3.0 8.0 0.00 0.13 0.11 80 1019.6
20191206170527 28 342 3.0 8.0 0.00 0.13 0.11 80 1019.6
20191206170111 28 323 3.0 9.0 0.00 0.13 0.11 82 1019.6
20191206165527 28 314 3.0 9.0 0.00 0.13 0.11 82 1019.8
20191206165040 28 330 2.0 8.0 0.00 0.13 0.11 83 1019.8
20191206164543 28 323 3.0 8.0 0.00 0.13 0.11 83 1019.7
20191206164039 28 331 4.0 7.0 0.00 0.13 0.11 83 1019.5
20191206163526 28 317 3.0 8.0 0.00 0.13 0.11 84 1019.6
20191206163050 28 228 3.0 9.0 0.00 0.13 0.11 84 1019.6